Time,TemperatureF,DewpointF,PressureIn,WindDirection,WindDirectionDegrees,WindSpeedMPH,WindSpeedGustMPH,Humidity,HourlyPrecipIn,Conditions,Clouds,dailyrainin,SoftwareType,DateUTC
2013-02-09 00:01:00,28.7,24.8,30.12,SE,136,5.2,7.5,85,0.00,,,0.00,WUHU216HW,2013-02-09 06:01:00,
2013-02-09 00:06:00,29.1,25.4,30.12,SSE,166,5.9,10.6,86,0.00,,,0.00,WUHU216HW,2013-02-09 06:06:00,
2013-02-09 00:11:00,29.3,25.6,30.13,SSE,149,5.6,6.9,86,0.00,,,0.00,WUHU216HW,2013-02-09 06:11:00,
2013-02-09 00:17:00,29.3,25.6,30.12,SE,135,7.6,9.8,86,0.00,,,0.00,WUHU216HW,2013-02-09 06:17:00,
2013-02-09 00:22:00,29.4,25.7,30.13,SE,136,6.5,7.7,86,0.00,,,0.00,WUHU216HW,2013-02-09 06:22:00,
2013-02-09 00:27:00,29.8,26.1,30.13,SSE,167,8.5,11.8,86,0.00,,,0.00,WUHU216HW,2013-02-09 06:27:00,
2013-02-09 00:32:00,30.0,26.3,30.12,South,170,9.9,15.4,86,0.00,,,0.00,WUHU216HW,2013-02-09 06:32:00,
2013-02-09 00:37:00,30.0,26.3,30.12,South,169,8.3,11.3,86,0.00,,,0.00,WUHU216HW,2013-02-09 06:37:00,
2013-02-09 00:42:00,30.0,26.3,30.11,SE,141,8.9,11.8,86,0.00,,,0.00,WUHU216HW,2013-02-09 06:42:00,
2013-02-09 00:47:00,30.0,26.3,30.12,SSE,158,8.6,9.5,86,0.00,,,0.00,WUHU216HW,2013-02-09 06:47:00,
2013-02-09 00:52:00,30.0,26.3,30.11,SSE,147,8.7,11.8,86,0.00,,,0.00,WUHU216HW,2013-02-09 06:52:00,
2013-02-09 00:57:00,30.0,26.3,30.11,SE,141,6.6,7.9,86,0.00,,,0.00,WUHU216HW,2013-02-09 06:57:00,
2013-02-09 01:02:00,30.0,26.3,30.11,SE,145,7.4,12.1,86,0.00,,,0.00,WUHU216HW,2013-02-09 07:02:00,
2013-02-09 01:07:00,29.8,26.1,30.11,SSE,164,9.4,14.1,86,0.00,,,0.00,WUHU216HW,2013-02-09 07:07:00,
2013-02-09 01:12:00,29.8,26.1,30.11,SSE,150,6.4,9.8,86,0.00,,,0.00,WUHU216HW,2013-02-09 07:12:00,
2013-02-09 01:17:00,30.0,26.3,30.11,SE,145,8.2,11.3,86,0.00,,,0.00,WUHU216HW,2013-02-09 07:17:00,
2013-02-09 01:22:00,30.0,26.3,30.11,SSE,156,6.3,8.7,86,0.00,,,0.00,WUHU216HW,2013-02-09 07:22:00,
2013-02-09 01:27:00,30.0,26.3,30.11,SSE,149,8.1,13.1,86,0.00,,,0.00,WUHU216HW,2013-02-09 07:27:00,
2013-02-09 01:32:00,30.0,26.3,30.10,SSE,161,7.0,9.8,86,0.00,,,0.00,WUHU216HW,2013-02-09 07:32:00,
2013-02-09 01:37:00,30.0,26.3,30.11,SE,141,7.2,10.6,86,0.00,,,0.00,WUHU216HW,2013-02-09 07:37:00,
2013-02-09 01:42:00,30.0,26.3,30.10,SSE,160,7.9,10.6,86,0.00,,,0.00,WUHU216HW,2013-02-09 07:42:00,
2013-02-09 01:47:00,30.3,26.5,30.10,SSE,165,7.9,10.0,86,0.00,,,0.00,WUHU216HW,2013-02-09 07:47:00,
2013-02-09 01:52:00,30.3,26.5,30.10,SE,140,8.6,10.6,86,0.00,,,0.00,WUHU216HW,2013-02-09 07:52:00,
2013-02-09 01:57:00,30.4,26.6,30.10,SSE,153,7.3,10.6,86,0.00,,,0.00,WUHU216HW,2013-02-09 07:57:00,
2013-02-09 02:02:00,30.4,26.6,30.10,SSE,166,7.7,9.8,86,0.00,,,0.00,WUHU216HW,2013-02-09 08:02:00,
2013-02-09 02:07:00,30.4,26.6,30.09,SSE,151,8.4,16.0,86,0.00,,,0.00,WUHU216HW,2013-02-09 08:07:00,
2013-02-09 02:12:00,30.4,26.6,30.09,SSE,153,7.8,11.8,86,0.00,,,0.00,WUHU216HW,2013-02-09 08:12:00,
2013-02-09 02:17:00,30.4,26.6,30.09,SE,135,7.3,9.8,86,0.00,,,0.00,WUHU216HW,2013-02-09 08:17:00,
2013-02-09 02:22:00,30.4,26.6,30.09,SSE,147,7.8,10.0,86,0.00,,,0.00,WUHU216HW,2013-02-09 08:22:00,
2013-02-09 02:27:00,30.4,26.6,30.09,SE,143,7.4,10.0,86,0.00,,,0.00,WUHU216HW,2013-02-09 08:27:00,
2013-02-09 02:32:00,30.6,26.8,30.09,SE,138,7.2,11.6,86,0.00,,,0.00,WUHU216HW,2013-02-09 08:32:00,
2013-02-09 02:37:00,30.6,26.8,30.09,SSE,156,7.2,10.6,86,0.00,,,0.00,WUHU216HW,2013-02-09 08:37:00,
2013-02-09 02:42:00,30.8,27.0,30.08,South,173,7.0,7.9,86,0.00,,,0.00,WUHU216HW,2013-02-09 08:42:00,
2013-02-09 02:47:00,30.8,27.0,30.09,SSE,149,6.1,8.7,86,0.00,,,0.00,WUHU216HW,2013-02-09 08:47:00,
2013-02-09 02:52:00,30.8,27.0,30.09,SSE,168,5.5,9.8,86,0.00,,,0.00,WUHU216HW,2013-02-09 08:52:00,
2013-02-09 02:57:00,30.8,27.0,30.08,SSE,147,7.1,9.8,86,0.00,,,0.00,WUHU216HW,2013-02-09 08:57:00,
2013-02-09 03:02:00,30.8,27.0,30.08,SSE,163,6.4,9.5,86,0.00,,,0.00,WUHU216HW,2013-02-09 09:02:00,
2013-02-09 03:07:00,30.8,27.0,30.08,SSE,150,6.1,8.5,86,0.00,,,0.00,WUHU216HW,2013-02-09 09:07:00,
2013-02-09 03:12:00,30.8,27.0,30.08,SE,144,7.7,10.8,86,0.00,,,0.00,WUHU216HW,2013-02-09 09:12:00,
2013-02-09 03:17:00,30.8,27.0,30.08,SSE,153,7.8,12.1,86,0.00,,,0.00,WUHU216HW,2013-02-09 09:17:00,
2013-02-09 03:22:00,30.8,27.0,30.08,SSE,159,8.6,12.1,86,0.00,,,0.00,WUHU216HW,2013-02-09 09:22:00,
2013-02-09 03:27:00,30.8,27.0,30.08,SSE,152,6.4,9.3,86,0.00,,,0.00,WUHU216HW,2013-02-09 09:27:00,
2013-02-09 03:32:00,30.8,27.0,30.08,SE,144,5.8,7.9,86,0.00,,,0.00,WUHU216HW,2013-02-09 09:32:00,
2013-02-09 03:37:00,30.8,27.0,30.08,SE,143,7.1,9.8,86,0.00,,,0.00,WUHU216HW,2013-02-09 09:37:00,
2013-02-09 03:42:00,30.8,27.0,30.08,SSE,148,5.7,8.3,86,0.00,,,0.00,WUHU216HW,2013-02-09 09:42:00,
2013-02-09 03:47:00,30.8,27.0,30.08,SE,139,7.1,7.9,86,0.00,,,0.00,WUHU216HW,2013-02-09 09:47:00,
2013-02-09 03:52:00,31.0,27.2,30.07,SSE,155,6.4,7.5,86,0.00,,,0.00,WUHU216HW,2013-02-09 09:52:00,
2013-02-09 03:57:00,31.0,27.2,30.07,South,177,8.0,9.8,86,0.00,,,0.00,WUHU216HW,2013-02-09 09:57:00,
2013-02-09 04:02:00,31.0,27.2,30.06,SSE,152,7.8,9.8,86,0.00,,,0.00,WUHU216HW,2013-02-09 10:02:00,
2013-02-09 04:07:00,31.2,27.4,30.06,SE,143,6.5,6.9,86,0.00,,,0.00,WUHU216HW,2013-02-09 10:07:00,
2013-02-09 04:12:00,31.2,27.4,30.06,SSE,164,8.2,13.1,86,0.00,,,0.00,WUHU216HW,2013-02-09 10:12:00,
2013-02-09 04:17:00,31.2,27.4,30.06,SSE,157,7.0,9.0,86,0.00,,,0.00,WUHU216HW,2013-02-09 10:17:00,
2013-02-09 04:22:00,31.2,27.4,30.05,SSE,153,8.7,13.3,86,0.00,,,0.00,WUHU216HW,2013-02-09 10:22:00,
2013-02-09 04:27:00,31.2,27.4,30.06,SSE,160,6.0,7.7,86,0.00,,,0.00,WUHU216HW,2013-02-09 10:27:00,
2013-02-09 04:32:00,31.2,27.4,30.05,SSE,155,8.4,11.8,86,0.00,,,0.00,WUHU216HW,2013-02-09 10:32:00,
2013-02-09 04:37:00,31.2,27.4,30.05,SSE,154,6.0,9.0,86,0.00,,,0.00,WUHU216HW,2013-02-09 10:37:00,
2013-02-09 04:42:00,31.3,27.5,30.05,SE,136,7.6,9.5,86,0.00,,,0.00,WUHU216HW,2013-02-09 10:42:00,
2013-02-09 04:47:00,31.2,27.4,30.04,SSE,153,9.3,10.8,86,0.00,,,0.00,WUHU216HW,2013-02-09 10:47:00,
2013-02-09 04:52:00,31.2,27.4,30.04,SE,143,8.3,9.5,86,0.00,,,0.00,WUHU216HW,2013-02-09 10:52:00,
2013-02-09 04:57:00,31.2,27.4,30.04,SSE,159,7.8,10.6,86,0.00,,,0.00,WUHU216HW,2013-02-09 10:57:00,
2013-02-09 05:02:00,31.2,27.4,30.04,SE,131,9.2,12.1,86,0.00,,,0.00,WUHU216HW,2013-02-09 11:02:00,
2013-02-09 05:07:00,31.3,27.5,30.03,SE,142,7.8,11.6,86,0.00,,,0.00,WUHU216HW,2013-02-09 11:07:00,
2013-02-09 05:12:00,31.3,27.5,30.03,SE,145,7.3,8.3,86,0.00,,,0.00,WUHU216HW,2013-02-09 11:12:00,
2013-02-09 05:17:00,31.2,27.4,30.03,SSE,161,7.1,11.3,86,0.00,,,0.00,WUHU216HW,2013-02-09 11:17:00,
2013-02-09 05:22:00,31.2,27.4,30.02,South,171,9.8,12.1,86,0.00,,,0.00,WUHU216HW,2013-02-09 11:22:00,
2013-02-09 05:27:00,31.2,27.4,30.03,SSE,148,9.2,11.6,86,0.00,,,0.00,WUHU216HW,2013-02-09 11:27:00,
2013-02-09 05:32:00,31.3,27.5,30.02,SE,143,7.1,8.3,86,0.00,,,0.00,WUHU216HW,2013-02-09 11:32:00,
2013-02-09 05:37:00,31.3,27.5,30.02,SSE,151,7.9,9.5,86,0.00,,,0.00,WUHU216HW,2013-02-09 11:37:00,
2013-02-09 05:42:00,31.3,27.5,30.02,SSE,151,6.3,7.5,86,0.00,,,0.00,WUHU216HW,2013-02-09 11:42:00,
2013-02-09 05:47:00,31.5,27.7,30.03,SSE,154,5.9,7.5,86,0.00,,,0.00,WUHU216HW,2013-02-09 11:47:00,
2013-02-09 05:52:00,31.5,27.7,30.03,SE,146,5.2,6.4,86,0.00,,,0.00,WUHU216HW,2013-02-09 11:52:00,
2013-02-09 05:57:00,31.5,27.7,30.03,SSE,151,6.8,10.0,86,0.00,,,0.00,WUHU216HW,2013-02-09 11:57:00,
2013-02-09 06:02:00,31.5,27.4,30.02,SE,145,7.7,10.2,85,0.00,,,0.00,WUHU216HW,2013-02-09 12:02:00,
2013-02-09 06:07:00,31.5,27.4,30.02,SSE,151,7.1,8.3,85,0.00,,,0.00,WUHU216HW,2013-02-09 12:07:00,
2013-02-09 06:12:00,31.5,27.4,30.02,SE,142,5.5,6.9,85,0.00,,,0.00,WUHU216HW,2013-02-09 12:12:00,
2013-02-09 06:17:00,31.5,27.4,30.02,SE,146,7.9,12.1,85,0.00,,,0.00,WUHU216HW,2013-02-09 12:17:00,
2013-02-09 06:22:00,31.5,27.4,30.02,SSE,155,5.8,6.9,85,0.00,,,0.00,WUHU216HW,2013-02-09 12:22:00,
2013-02-09 06:27:00,31.5,27.4,30.02,SE,144,7.0,11.6,85,0.00,,,0.00,WUHU216HW,2013-02-09 12:27:00,
2013-02-09 06:32:00,31.5,27.4,30.02,SSE,157,7.6,11.3,85,0.00,,,0.00,WUHU216HW,2013-02-09 12:32:00,
2013-02-09 06:37:00,31.5,27.4,30.01,SSE,154,7.8,11.0,85,0.00,,,0.00,WUHU216HW,2013-02-09 12:37:00,
2013-02-09 06:42:00,31.3,27.2,30.01,SSE,148,10.9,13.7,85,0.00,,,0.00,WUHU216HW,2013-02-09 12:42:00,
2013-02-09 06:47:00,31.3,27.2,30.01,SSE,164,10.1,12.3,85,0.00,,,0.00,WUHU216HW,2013-02-09 12:47:00,
2013-02-09 06:52:00,31.3,27.2,30.02,South,177,7.6,9.8,85,0.00,,,0.00,WUHU216HW,2013-02-09 12:52:00,
2013-02-09 06:57:00,31.5,27.4,30.01,SSE,151,11.8,17.3,85,0.00,,,0.00,WUHU216HW,2013-02-09 12:57:00,
2013-02-09 07:02:00,31.5,27.4,30.01,SSE,163,10.1,14.1,85,0.00,,,0.00,WUHU216HW,2013-02-09 13:02:00,
2013-02-09 07:07:00,31.3,27.2,30.01,South,175,9.0,13.1,85,0.00,,,0.00,WUHU216HW,2013-02-09 13:07:00,
2013-02-09 07:12:00,31.3,27.2,30.01,South,171,10.3,14.7,85,0.00,,,0.00,WUHU216HW,2013-02-09 13:12:00,
2013-02-09 07:17:00,31.3,27.2,30.01,SSE,149,9.7,16.0,85,0.00,,,0.00,WUHU216HW,2013-02-09 13:17:00,
2013-02-09 07:22:00,31.3,27.2,30.01,SSE,155,7.7,10.0,85,0.00,,,0.00,WUHU216HW,2013-02-09 13:22:00,
2013-02-09 07:27:00,31.3,27.2,30.01,SE,146,5.6,7.5,85,0.00,,,0.00,WUHU216HW,2013-02-09 13:27:00,
2013-02-09 07:32:00,31.3,27.2,30.01,SSE,159,8.8,11.0,85,0.00,,,0.00,WUHU216HW,2013-02-09 13:32:00,
2013-02-09 07:37:00,31.2,27.1,30.01,SE,143,9.4,15.2,85,0.00,,,0.00,WUHU216HW,2013-02-09 13:37:00,
2013-02-09 07:42:00,31.2,27.1,30.01,SE,144,9.7,14.1,85,0.00,,,0.00,WUHU216HW,2013-02-09 13:42:00,
2013-02-09 07:47:00,31.2,27.1,30.01,SSE,159,8.4,9.0,85,0.00,,,0.00,WUHU216HW,2013-02-09 13:47:00,
2013-02-09 07:52:00,31.2,27.1,30.01,SSE,165,9.4,11.6,85,0.00,,,0.00,WUHU216HW,2013-02-09 13:52:00,
2013-02-09 07:57:00,31.0,26.9,30.01,SSE,162,8.8,10.8,85,0.00,,,0.00,WUHU216HW,2013-02-09 13:57:00,
2013-02-09 08:02:00,31.2,27.1,30.01,South,185,6.4,9.3,85,0.00,,,0.00,WUHU216HW,2013-02-09 14:02:00,
2013-02-09 08:07:00,31.2,27.1,30.01,South,179,7.5,10.0,85,0.00,,,0.00,WUHU216HW,2013-02-09 14:07:00,
2013-02-09 08:12:00,31.2,27.1,30.01,SSE,159,8.3,12.1,85,0.00,,,0.00,WUHU216HW,2013-02-09 14:12:00,
2013-02-09 08:17:00,31.2,27.1,30.01,SSE,151,8.2,12.6,85,0.00,,,0.00,WUHU216HW,2013-02-09 14:17:00,
2013-02-09 08:22:00,31.2,27.1,30.01,SSE,147,7.2,11.0,85,0.00,,,0.00,WUHU216HW,2013-02-09 14:22:00,
2013-02-09 08:27:00,31.2,27.1,30.01,SE,140,5.6,7.2,85,0.00,,,0.00,WUHU216HW,2013-02-09 14:27:00,
2013-02-09 08:32:00,31.3,27.5,30.01,SSE,162,6.2,8.5,86,0.00,,,0.00,WUHU216HW,2013-02-09 14:32:00,
2013-02-09 08:37:00,31.5,27.4,30.00,SSE,147,8.0,8.7,85,0.00,,,0.00,WUHU216HW,2013-02-09 14:37:00,
2013-02-09 08:42:00,31.3,27.2,30.01,SSE,158,9.0,10.8,85,0.00,,,0.00,WUHU216HW,2013-02-09 14:42:00,
2013-02-09 08:47:00,31.5,27.4,30.01,South,182,5.8,8.3,85,0.00,,,0.00,WUHU216HW,2013-02-09 14:47:00,
2013-02-09 08:52:00,31.5,27.4,30.00,SE,142,8.1,10.6,85,0.00,,,0.00,WUHU216HW,2013-02-09 14:52:00,
2013-02-09 08:57:00,31.7,27.6,30.00,SE,144,7.4,10.6,85,0.00,,,0.00,WUHU216HW,2013-02-09 14:57:00,
2013-02-09 09:02:00,31.7,27.6,30.00,SSE,148,6.8,7.9,85,0.00,,,0.00,WUHU216HW,2013-02-09 15:02:00,
2013-02-09 09:07:00,31.9,27.8,30.00,SSE,150,7.6,11.3,85,0.00,,,0.00,WUHU216HW,2013-02-09 15:07:00,
2013-02-09 09:12:00,32.1,28.0,30.00,SSE,152,7.8,10.2,85,0.00,,,0.00,WUHU216HW,2013-02-09 15:12:00,
2013-02-09 09:17:00,32.1,28.0,29.99,SSE,155,6.5,9.8,85,0.00,,,0.00,WUHU216HW,2013-02-09 15:17:00,
2013-02-09 09:22:00,32.2,28.1,29.99,SSE,147,9.3,11.8,85,0.00,,,0.00,WUHU216HW,2013-02-09 15:22:00,
2013-02-09 09:27:00,32.4,28.0,29.99,SSE,147,6.6,8.3,84,0.00,,,0.00,WUHU216HW,2013-02-09 15:27:00,
2013-02-09 09:32:00,32.6,28.2,29.99,SSE,164,7.6,10.6,84,0.00,,,0.00,WUHU216HW,2013-02-09 15:32:00,
2013-02-09 09:37:00,32.8,28.4,29.99,SSE,154,6.6,7.9,84,0.00,,,0.00,WUHU216HW,2013-02-09 15:37:00,
2013-02-09 09:42:00,33.0,28.6,29.99,SSE,154,10.2,14.1,84,0.00,,,0.00,WUHU216HW,2013-02-09 15:42:00,
2013-02-09 09:47:00,33.3,28.6,29.99,SE,143,6.9,9.0,83,0.00,,,0.00,WUHU216HW,2013-02-09 15:47:00,
2013-02-09 09:52:00,33.7,29.0,29.99,SE,143,6.9,10.6,83,0.00,,,0.00,WUHU216HW,2013-02-09 15:52:00,
2013-02-09 09:57:00,33.9,29.2,29.99,SSE,158,7.9,12.1,83,0.00,,,0.00,WUHU216HW,2013-02-09 15:57:00,
2013-02-09 10:02:00,34.0,29.3,29.99,SE,144,5.3,7.5,83,0.00,,,0.00,WUHU216HW,2013-02-09 16:02:00,
2013-02-09 10:07:00,34.4,30.0,29.99,SSE,154,8.5,12.6,84,0.00,,,0.00,WUHU216HW,2013-02-09 16:07:00,
2013-02-09 10:12:00,34.8,30.1,29.99,SSE,151,7.8,10.2,83,0.00,,,0.00,WUHU216HW,2013-02-09 16:12:00,
2013-02-09 10:17:00,34.9,30.2,29.99,SSE,166,6.9,11.8,83,0.00,,,0.00,WUHU216HW,2013-02-09 16:17:00,
2013-02-09 10:22:00,35.3,30.3,29.98,SSE,161,7.5,10.8,82,0.00,,,0.00,WUHU216HW,2013-02-09 16:22:00,
2013-02-09 10:27:00,35.8,30.8,29.98,South,170,7.4,11.0,82,0.00,,,0.00,WUHU216HW,2013-02-09 16:27:00,
2013-02-09 10:32:00,36.0,31.0,29.98,SSE,165,8.4,9.8,82,0.00,,,0.00,WUHU216HW,2013-02-09 16:32:00,
2013-02-09 10:37:00,36.4,31.1,29.98,SE,143,8.9,10.6,81,0.00,,,0.00,WUHU216HW,2013-02-09 16:37:00,
2013-02-09 10:42:00,36.6,31.0,29.98,SSE,160,6.9,11.3,80,0.00,,,0.00,WUHU216HW,2013-02-09 16:42:00,
2013-02-09 10:47:00,36.7,31.1,29.97,SSE,156,6.0,7.9,80,0.00,,,0.00,WUHU216HW,2013-02-09 16:47:00,
2013-02-09 10:52:00,37.3,31.7,29.97,SE,141,6.9,10.6,80,0.00,,,0.00,WUHU216HW,2013-02-09 16:52:00,
2013-02-09 10:57:00,37.6,32.0,29.97,SSE,149,7.6,10.6,80,0.00,,,0.00,WUHU216HW,2013-02-09 16:57:00,
2013-02-09 11:02:00,38.0,32.1,29.97,SSE,163,7.4,9.8,79,0.00,,,0.00,WUHU216HW,2013-02-09 17:02:00,
2013-02-09 11:07:00,38.0,31.8,29.97,SSE,153,7.5,9.8,78,0.00,,,0.00,WUHU216HW,2013-02-09 17:07:00,
2013-02-09 11:12:00,38.4,32.2,29.97,SSE,151,7.2,10.2,78,0.00,,,0.00,WUHU216HW,2013-02-09 17:12:00,
2013-02-09 11:17:00,38.7,32.8,29.96,SSE,151,9.6,12.3,79,0.00,,,0.00,WUHU216HW,2013-02-09 17:17:00,
2013-02-09 11:22:00,39.1,32.8,29.96,SSE,152,8.6,12.9,78,0.00,,,0.00,WUHU216HW,2013-02-09 17:22:00,
2013-02-09 11:27:00,39.4,33.1,29.96,SSE,159,9.7,13.3,78,0.00,,,0.00,WUHU216HW,2013-02-09 17:27:00,
2013-02-09 11:32:00,39.6,33.0,29.96,SSE,162,8.4,10.2,77,0.00,,,0.00,WUHU216HW,2013-02-09 17:32:00,
2013-02-09 11:37:00,40.0,34.0,29.96,SSE,159,8.6,10.8,79,0.00,,,0.00,WUHU216HW,2013-02-09 17:37:00,
2013-02-09 11:42:00,40.9,35.2,29.96,SE,141,9.0,14.7,80,0.00,,,0.00,WUHU216HW,2013-02-09 17:42:00,
2013-02-09 11:47:00,41.6,35.6,29.95,South,173,7.8,11.6,79,0.00,,,0.00,WUHU216HW,2013-02-09 17:47:00,
2013-02-09 11:52:00,42.1,35.5,29.95,SSE,156,7.3,10.6,77,0.00,,,0.00,WUHU216HW,2013-02-09 17:52:00,
2013-02-09 11:57:00,42.5,35.2,29.95,SE,146,9.9,14.7,75,0.00,,,0.00,WUHU216HW,2013-02-09 17:57:00,
2013-02-09 12:02:00,42.5,34.9,29.94,SSE,159,8.3,11.0,74,0.00,,,0.00,WUHU216HW,2013-02-09 18:02:00,
2013-02-09 12:07:00,42.3,34.3,29.94,SE,131,9.6,11.3,73,0.00,,,0.00,WUHU216HW,2013-02-09 18:07:00,
2013-02-09 12:12:00,42.5,34.5,29.93,South,174,8.4,9.8,73,0.00,,,0.00,WUHU216HW,2013-02-09 18:12:00,
2013-02-09 12:17:00,42.7,34.7,29.93,SE,142,6.4,9.8,73,0.00,,,0.00,WUHU216HW,2013-02-09 18:17:00,
2013-02-09 12:22:00,42.7,34.7,29.92,SE,134,8.3,10.8,73,0.00,,,0.00,WUHU216HW,2013-02-09 18:22:00,
2013-02-09 12:27:00,42.7,34.7,29.92,SSE,149,8.2,10.6,73,0.00,,,0.00,WUHU216HW,2013-02-09 18:27:00,
2013-02-09 12:32:00,42.7,34.7,29.92,SSE,149,7.2,10.6,73,0.00,,,0.00,WUHU216HW,2013-02-09 18:32:00,
2013-02-09 12:37:00,43.0,35.0,29.91,SE,141,7.3,8.5,73,0.00,,,0.00,WUHU216HW,2013-02-09 18:37:00,
2013-02-09 12:42:00,43.2,35.2,29.90,SSE,148,8.0,12.3,73,0.00,,,0.00,WUHU216HW,2013-02-09 18:42:00,
2013-02-09 12:47:00,43.4,35.1,29.90,SE,141,8.7,11.8,72,0.00,,,0.00,WUHU216HW,2013-02-09 18:47:00,
2013-02-09 12:53:00,43.6,35.3,29.90,SSE,147,7.3,8.7,72,0.00,,,0.00,WUHU216HW,2013-02-09 18:53:00,
2013-02-09 12:58:00,43.8,35.5,29.89,SSE,153,9.3,12.3,72,0.00,,,0.00,WUHU216HW,2013-02-09 18:58:00,
2013-02-09 13:03:00,43.9,35.6,29.89,SSE,152,7.8,8.7,72,0.00,,,0.00,WUHU216HW,2013-02-09 19:03:00,
2013-02-09 13:08:00,44.3,35.9,29.88,SSE,149,6.5,8.7,72,0.00,,,0.00,WUHU216HW,2013-02-09 19:08:00,
2013-02-09 13:13:00,44.7,36.3,29.88,SE,140,8.1,9.8,72,0.00,,,0.00,WUHU216HW,2013-02-09 19:13:00,
2013-02-09 13:18:00,45.0,36.3,29.87,SSE,156,6.6,10.6,71,0.00,,,0.00,WUHU216HW,2013-02-09 19:18:00,
2013-02-09 13:23:00,45.4,37.0,29.87,SSE,154,6.9,9.8,72,0.00,,,0.00,WUHU216HW,2013-02-09 19:23:00,
2013-02-09 13:28:00,45.6,36.9,29.86,SE,146,7.5,9.3,71,0.00,,,0.00,WUHU216HW,2013-02-09 19:28:00,
2013-02-09 13:33:00,45.9,36.8,29.86,SSE,161,7.9,11.3,70,0.00,,,0.00,WUHU216HW,2013-02-09 19:33:00,
2013-02-09 13:38:00,45.9,36.8,29.86,ESE,106,7.1,8.7,70,0.00,,,0.00,WUHU216HW,2013-02-09 19:38:00,
2013-02-09 13:43:00,45.9,36.8,29.85,SE,137,8.1,10.2,70,0.00,,,0.00,WUHU216HW,2013-02-09 19:43:00,
2013-02-09 13:48:00,45.9,36.8,29.85,SSE,167,8.2,12.9,70,0.00,,,0.00,WUHU216HW,2013-02-09 19:48:00,
2013-02-09 13:53:00,45.7,36.2,29.85,ESE,108,9.8,11.0,69,0.00,,,0.00,WUHU216HW,2013-02-09 19:53:00,
2013-02-09 13:58:00,45.6,36.1,29.85,SE,137,8.4,10.6,69,0.00,,,0.00,WUHU216HW,2013-02-09 19:58:00,
2013-02-09 14:03:00,45.7,36.2,29.84,ESE,121,8.5,9.8,69,0.00,,,0.00,WUHU216HW,2013-02-09 20:03:00,
2013-02-09 14:08:00,45.9,36.4,29.84,SE,142,9.0,12.1,69,0.00,,,0.00,WUHU216HW,2013-02-09 20:08:00,
2013-02-09 14:13:00,45.9,36.4,29.83,SE,143,8.2,11.6,69,0.00,,,0.00,WUHU216HW,2013-02-09 20:13:00,
2013-02-09 14:18:00,46.1,36.6,29.83,SE,125,7.4,9.0,69,0.00,,,0.00,WUHU216HW,2013-02-09 20:18:00,
2013-02-09 14:23:00,46.5,37.0,29.82,SE,143,8.3,10.8,69,0.00,,,0.00,WUHU216HW,2013-02-09 20:23:00,
2013-02-09 14:28:00,46.8,37.3,29.82,SE,134,5.2,6.2,69,0.00,,,0.00,WUHU216HW,2013-02-09 20:28:00,
2013-02-09 14:33:00,47.2,37.3,29.82,SSE,164,9.9,11.6,68,0.00,,,0.00,WUHU216HW,2013-02-09 20:33:00,
2013-02-09 14:38:00,47.4,37.5,29.81,SSE,168,9.9,13.3,68,0.00,,,0.00,WUHU216HW,2013-02-09 20:38:00,
2013-02-09 14:43:00,47.4,37.1,29.81,SE,127,6.1,6.4,67,0.00,,,0.00,WUHU216HW,2013-02-09 20:43:00,
2013-02-09 14:48:00,47.5,37.2,29.82,SE,133,8.6,12.1,67,0.00,,,0.00,WUHU216HW,2013-02-09 20:48:00,
2013-02-09 14:53:00,47.5,37.2,29.82,SSE,155,8.4,10.6,67,0.00,,,0.00,WUHU216HW,2013-02-09 20:53:00,
2013-02-09 14:58:00,47.9,37.2,29.81,SSE,149,8.4,9.8,66,0.00,,,0.00,WUHU216HW,2013-02-09 20:58:00,
2013-02-09 15:03:00,47.7,37.0,29.81,SE,135,6.5,6.9,66,0.00,,,0.00,WUHU216HW,2013-02-09 21:03:00,
2013-02-09 15:08:00,47.9,37.6,29.81,SSE,154,8.8,11.0,67,0.00,,,0.00,WUHU216HW,2013-02-09 21:08:00,
2013-02-09 15:13:00,48.1,37.4,29.80,SSE,163,8.7,10.8,66,0.00,,,0.00,WUHU216HW,2013-02-09 21:13:00,
2013-02-09 15:18:00,48.4,37.7,29.81,SSE,148,9.2,10.8,66,0.00,,,0.00,WUHU216HW,2013-02-09 21:18:00,
2013-02-09 15:23:00,48.4,37.7,29.80,SSE,154,8.5,9.8,66,0.00,,,0.00,WUHU216HW,2013-02-09 21:23:00,
2013-02-09 15:28:00,48.6,37.5,29.80,SSE,158,6.9,8.5,65,0.00,,,0.00,WUHU216HW,2013-02-09 21:28:00,
2013-02-09 15:33:00,49.0,38.3,29.80,SSE,159,7.8,10.0,66,0.00,,,0.00,WUHU216HW,2013-02-09 21:33:00,
2013-02-09 15:38:00,49.2,38.1,29.80,SE,134,7.3,10.8,65,0.00,,,0.00,WUHU216HW,2013-02-09 21:38:00,
2013-02-09 15:43:00,49.2,37.7,29.79,SSE,147,8.1,10.2,64,0.00,,,0.00,WUHU216HW,2013-02-09 21:43:00,
2013-02-09 15:48:00,49.2,37.7,29.79,SE,135,7.3,7.7,64,0.00,,,0.00,WUHU216HW,2013-02-09 21:48:00,
2013-02-09 15:53:00,49.3,37.8,29.78,SSE,161,7.0,8.5,64,0.00,,,0.00,WUHU216HW,2013-02-09 21:53:00,
2013-02-09 15:58:00,49.2,38.1,29.78,SE,146,9.3,14.4,65,0.00,,,0.00,WUHU216HW,2013-02-09 21:58:00,
2013-02-09 16:03:00,49.2,38.1,29.77,SSE,147,6.6,8.5,65,0.00,,,0.00,WUHU216HW,2013-02-09 22:03:00,
2013-02-09 16:08:00,49.0,37.9,29.77,SE,145,8.0,9.8,65,0.00,,,0.00,WUHU216HW,2013-02-09 22:08:00,
2013-02-09 16:13:00,49.0,37.9,29.78,SE,142,6.2,6.9,65,0.00,,,0.00,WUHU216HW,2013-02-09 22:13:00,
2013-02-09 16:18:00,48.6,37.5,29.78,SSE,159,9.2,14.1,65,0.00,,,0.00,WUHU216HW,2013-02-09 22:18:00,
2013-02-09 16:23:00,48.4,37.3,29.78,SSE,154,8.4,10.6,65,0.00,,,0.00,WUHU216HW,2013-02-09 22:23:00,
2013-02-09 16:28:00,48.3,37.2,29.78,SE,143,9.8,15.4,65,0.00,,,0.00,WUHU216HW,2013-02-09 22:28:00,
2013-02-09 16:33:00,47.9,37.2,29.78,SSE,148,10.2,13.1,66,0.00,,,0.00,WUHU216HW,2013-02-09 22:33:00,
2013-02-09 16:38:00,47.9,37.2,29.77,SSE,164,9.1,13.3,66,0.00,,,0.00,WUHU216HW,2013-02-09 22:38:00,
2013-02-09 16:43:00,47.9,37.2,29.77,SSE,147,7.2,10.2,66,0.00,,,0.00,WUHU216HW,2013-02-09 22:43:00,
2013-02-09 16:48:00,47.9,37.2,29.77,SE,146,6.2,7.9,66,0.00,,,0.00,WUHU216HW,2013-02-09 22:48:00,
2013-02-09 16:53:00,47.7,37.0,29.77,SE,126,5.4,6.2,66,0.00,,,0.00,WUHU216HW,2013-02-09 22:53:00,
2013-02-09 16:58:00,47.7,37.0,29.77,SE,142,8.3,13.7,66,0.00,,,0.00,WUHU216HW,2013-02-09 22:58:00,
2013-02-09 17:03:00,47.5,36.8,29.77,SSE,150,6.7,9.0,66,0.00,,,0.00,WUHU216HW,2013-02-09 23:03:00,
2013-02-09 17:08:00,47.5,37.2,29.76,SE,135,7.5,7.9,67,0.00,,,0.00,WUHU216HW,2013-02-09 23:08:00,
2013-02-09 17:13:00,47.2,36.9,29.76,SE,145,6.2,8.7,67,0.00,,,0.00,WUHU216HW,2013-02-09 23:13:00,
2013-02-09 17:18:00,47.2,36.9,29.76,SE,136,6.6,7.9,67,0.00,,,0.00,WUHU216HW,2013-02-09 23:18:00,
2013-02-09 17:23:00,46.8,36.5,29.76,ESE,113,6.6,6.7,67,0.00,,,0.00,WUHU216HW,2013-02-09 23:23:00,
2013-02-09 17:28:00,46.6,36.4,29.76,SE,134,7.4,11.3,67,0.00,,,0.00,WUHU216HW,2013-02-09 23:28:00,
2013-02-09 17:33:00,46.3,36.4,29.76,SE,126,6.6,8.3,68,0.00,,,0.00,WUHU216HW,2013-02-09 23:33:00,
2013-02-09 17:38:00,45.9,36.1,29.76,SE,138,6.2,7.9,68,0.00,,,0.00,WUHU216HW,2013-02-09 23:38:00,
2013-02-09 17:43:00,45.7,35.9,29.76,SE,133,5.4,6.9,68,0.00,,,0.00,WUHU216HW,2013-02-09 23:43:00,
2013-02-09 17:48:00,45.4,35.6,29.76,ESE,110,7.2,10.2,68,0.00,,,0.00,WUHU216HW,2013-02-09 23:48:00,
2013-02-09 17:53:00,45.2,35.7,29.77,ESE,123,6.3,8.7,69,0.00,,,0.00,WUHU216HW,2013-02-09 23:53:00,
2013-02-09 17:58:00,45.0,35.6,29.76,SE,125,6.1,6.9,69,0.00,,,0.00,WUHU216HW,2013-02-09 23:58:00,
2013-02-09 18:03:00,44.8,35.4,29.76,SE,124,6.4,7.2,69,0.00,,,0.00,WUHU216HW,2013-02-10 00:03:00,
2013-02-09 18:08:00,44.7,35.3,29.76,SE,132,8.4,10.2,69,0.00,,,0.00,WUHU216HW,2013-02-10 00:08:00,
2013-02-09 18:13:00,44.5,35.1,29.76,SE,131,8.1,8.5,69,0.00,,,0.00,WUHU216HW,2013-02-10 00:13:00,
2013-02-09 18:18:00,44.3,34.9,29.76,ESE,119,8.8,11.6,69,0.00,,,0.00,WUHU216HW,2013-02-10 00:18:00,
2013-02-09 18:23:00,44.1,34.7,29.76,SE,130,8.0,9.3,69,0.00,,,0.00,WUHU216HW,2013-02-10 00:23:00,
2013-02-09 18:28:00,43.8,34.8,29.77,SE,130,7.5,11.3,70,0.00,,,0.00,WUHU216HW,2013-02-10 00:28:00,
2013-02-09 18:33:00,43.8,34.8,29.77,SE,130,7.3,10.0,70,0.00,,,0.00,WUHU216HW,2013-02-10 00:33:00,
2013-02-09 18:38:00,43.6,34.6,29.77,SE,131,7.7,10.2,70,0.00,,,0.00,WUHU216HW,2013-02-10 00:38:00,
2013-02-09 18:43:00,43.2,34.5,29.77,SE,132,8.4,10.6,71,0.00,,,0.00,WUHU216HW,2013-02-10 00:43:00,
2013-02-09 18:48:00,43.0,34.0,29.76,ESE,122,7.7,8.7,70,0.00,,,0.00,WUHU216HW,2013-02-10 00:48:00,
2013-02-09 18:53:00,42.9,34.2,29.76,ESE,112,7.2,8.3,71,0.00,,,0.00,WUHU216HW,2013-02-10 00:53:00,
2013-02-09 18:58:00,42.9,34.2,29.76,SE,140,7.8,9.8,71,0.00,,,0.00,WUHU216HW,2013-02-10 00:58:00,
2013-02-09 19:03:00,42.7,34.0,29.76,ESE,117,7.3,8.5,71,0.00,,,0.00,WUHU216HW,2013-02-10 01:03:00,
2013-02-09 19:08:00,42.3,33.7,29.76,SE,128,7.3,10.8,71,0.00,,,0.00,WUHU216HW,2013-02-10 01:08:00,
2013-02-09 19:13:00,42.1,33.5,29.75,ESE,120,6.6,8.5,71,0.00,,,0.00,WUHU216HW,2013-02-10 01:13:00,
2013-02-09 19:18:00,42.0,33.4,29.75,SE,125,9.3,12.3,71,0.00,,,0.00,WUHU216HW,2013-02-10 01:18:00,
2013-02-09 19:23:00,41.8,33.5,29.75,ESE,118,8.8,12.1,72,0.00,,,0.00,WUHU216HW,2013-02-10 01:23:00,
2013-02-09 19:28:00,41.8,33.5,29.75,ESE,120,7.6,9.3,72,0.00,,,0.00,WUHU216HW,2013-02-10 01:28:00,
2013-02-09 19:33:00,41.6,33.3,29.75,SE,129,9.3,12.6,72,0.00,,,0.00,WUHU216HW,2013-02-10 01:33:00,
2013-02-09 19:38:00,41.4,33.5,29.75,SE,125,7.7,9.8,73,0.00,,,0.00,WUHU216HW,2013-02-10 01:38:00,
2013-02-09 19:43:00,41.2,33.3,29.75,ESE,112,8.4,12.1,73,0.00,,,0.00,WUHU216HW,2013-02-10 01:43:00,
2013-02-09 19:48:00,41.2,33.3,29.75,SE,132,8.8,10.2,73,0.00,,,0.00,WUHU216HW,2013-02-10 01:48:00,
2013-02-09 19:53:00,41.1,33.5,29.74,ESE,111,8.6,11.6,74,0.00,,,0.00,WUHU216HW,2013-02-10 01:53:00,
2013-02-09 19:58:00,40.9,33.3,29.74,East,90,8.8,13.7,74,0.00,,,0.00,WUHU216HW,2013-02-10 01:58:00,
2013-02-09 20:03:00,40.9,33.3,29.74,SE,125,9.1,12.1,74,0.00,,,0.00,WUHU216HW,2013-02-10 02:03:00,
2013-02-09 20:08:00,40.9,33.3,29.74,SSE,147,8.9,11.8,74,0.00,,,0.00,WUHU216HW,2013-02-10 02:08:00,
2013-02-09 20:13:00,40.9,33.3,29.74,ESE,109,9.8,12.1,74,0.00,,,0.00,WUHU216HW,2013-02-10 02:13:00,
2013-02-09 20:18:00,40.9,33.3,29.74,SE,131,9.1,9.8,74,0.00,,,0.00,WUHU216HW,2013-02-10 02:18:00,
2013-02-09 20:23:00,40.7,33.4,29.74,ESE,113,10.3,12.1,75,0.00,,,0.00,WUHU216HW,2013-02-10 02:23:00,
2013-02-09 20:28:00,40.2,33.6,29.73,ESE,115,8.7,10.0,77,0.00,,,0.00,WUHU216HW,2013-02-10 02:28:00,
2013-02-09 20:33:00,40.2,33.6,29.73,ESE,123,8.0,10.6,77,0.00,,,0.00,WUHU216HW,2013-02-10 02:33:00,
2013-02-09 20:38:00,40.0,33.4,29.73,ESE,110,5.2,6.4,77,0.00,,,0.00,WUHU216HW,2013-02-10 02:38:00,
2013-02-09 20:43:00,39.8,33.5,29.73,SE,129,8.7,10.8,78,0.00,,,0.00,WUHU216HW,2013-02-10 02:43:00,
2013-02-09 20:48:00,39.8,33.5,29.72,ESE,119,9.7,13.9,78,0.00,,,0.00,WUHU216HW,2013-02-10 02:48:00,
2013-02-09 20:53:00,39.8,33.5,29.72,ESE,118,7.5,8.5,78,0.00,,,0.00,WUHU216HW,2013-02-10 02:53:00,
2013-02-09 20:58:00,39.8,33.5,29.71,SE,143,7.7,10.6,78,0.00,,,0.00,WUHU216HW,2013-02-10 02:58:00,
2013-02-09 21:03:00,39.8,33.5,29.72,SE,139,7.8,13.3,78,0.00,,,0.00,WUHU216HW,2013-02-10 03:03:00,
2013-02-09 21:08:00,39.8,33.5,29.72,East,99,9.0,13.7,78,0.00,,,0.00,WUHU216HW,2013-02-10 03:08:00,
2013-02-09 21:13:00,39.6,33.3,29.71,SE,130,7.1,9.5,78,0.00,,,0.00,WUHU216HW,2013-02-10 03:13:00,
2013-02-09 21:18:00,39.6,33.3,29.71,SE,128,10.2,15.4,78,0.00,,,0.00,WUHU216HW,2013-02-10 03:18:00,
2013-02-09 21:23:00,39.6,33.3,29.71,ESE,110,6.9,9.5,78,0.00,,,0.00,WUHU216HW,2013-02-10 03:23:00,
2013-02-09 21:28:00,39.6,33.3,29.71,SSE,147,7.6,8.7,78,0.00,,,0.00,WUHU216HW,2013-02-10 03:28:00,
2013-02-09 21:33:00,39.4,33.1,29.71,ESE,119,7.6,10.6,78,0.00,,,0.00,WUHU216HW,2013-02-10 03:33:00,
2013-02-09 21:38:00,39.4,33.4,29.70,ESE,120,8.3,11.8,79,0.00,,,0.00,WUHU216HW,2013-02-10 03:38:00,
2013-02-09 21:43:00,39.4,33.4,29.70,ESE,105,8.9,9.8,79,0.00,,,0.00,WUHU216HW,2013-02-10 03:43:00,
2013-02-09 21:48:00,39.4,33.4,29.70,SE,133,8.3,10.2,79,0.00,,,0.00,WUHU216HW,2013-02-10 03:48:00,
2013-02-09 21:53:00,39.3,33.4,29.69,SE,137,9.9,12.9,79,0.00,,,0.00,WUHU216HW,2013-02-10 03:53:00,
2013-02-09 21:58:00,39.3,33.4,29.68,ESE,123,8.2,12.6,79,0.00,,,0.00,WUHU216HW,2013-02-10 03:58:00,
2013-02-09 22:03:00,39.3,33.4,29.68,SE,138,8.3,11.3,79,0.00,,,0.00,WUHU216HW,2013-02-10 04:03:00,
2013-02-09 22:08:00,39.4,33.4,29.68,SE,131,8.4,12.1,79,0.00,,,0.00,WUHU216HW,2013-02-10 04:08:00,
2013-02-09 22:13:00,39.3,33.4,29.68,ESE,116,9.5,11.3,79,0.00,,,0.00,WUHU216HW,2013-02-10 04:13:00,
2013-02-09 22:18:00,39.4,33.4,29.68,ESE,118,8.5,11.3,79,0.00,,,0.00,WUHU216HW,2013-02-10 04:18:00,
2013-02-09 22:23:00,39.4,33.1,29.68,ESE,115,8.7,11.3,78,0.00,,,0.00,WUHU216HW,2013-02-10 04:23:00,
2013-02-09 22:28:00,39.4,33.1,29.68,SE,143,7.5,9.8,78,0.00,,,0.00,WUHU216HW,2013-02-10 04:28:00,
2013-02-09 22:33:00,39.4,33.1,29.68,SE,142,10.3,11.8,78,0.00,,,0.00,WUHU216HW,2013-02-10 04:33:00,
2013-02-09 22:38:00,39.4,33.1,29.67,SE,129,8.4,11.0,78,0.00,,,0.00,WUHU216HW,2013-02-10 04:38:00,
2013-02-09 22:43:00,39.4,33.1,29.67,SE,138,7.9,12.6,78,0.00,,,0.00,WUHU216HW,2013-02-10 04:43:00,
2013-02-09 22:48:00,39.6,33.3,29.67,SE,137,6.0,8.3,78,0.00,,,0.00,WUHU216HW,2013-02-10 04:48:00,
2013-02-09 22:53:00,39.4,33.1,29.67,SE,126,8.5,11.0,78,0.00,,,0.00,WUHU216HW,2013-02-10 04:53:00,
2013-02-09 22:58:00,39.4,33.1,29.67,SE,132,7.9,8.7,78,0.00,,,0.00,WUHU216HW,2013-02-10 04:58:00,
2013-02-09 23:03:00,39.4,33.1,29.67,SE,126,6.8,7.9,78,0.00,,,0.00,WUHU216HW,2013-02-10 05:03:00,
2013-02-09 23:08:00,39.4,33.1,29.67,SE,134,8.6,11.6,78,0.00,,,0.00,WUHU216HW,2013-02-10 05:08:00,
2013-02-09 23:13:00,39.4,33.1,29.67,SE,132,8.7,13.1,78,0.00,,,0.00,WUHU216HW,2013-02-10 05:13:00,
2013-02-09 23:18:00,39.4,33.1,29.66,SE,129,8.7,11.6,78,0.00,,,0.00,WUHU216HW,2013-02-10 05:18:00,
2013-02-09 23:23:00,39.4,33.1,29.66,ESE,123,8.9,13.1,78,0.00,,,0.00,WUHU216HW,2013-02-10 05:23:00,
2013-02-09 23:28:00,39.4,33.1,29.67,SE,139,5.9,8.5,78,0.00,,,0.00,WUHU216HW,2013-02-10 05:28:00,
2013-02-09 23:33:00,39.4,33.1,29.69,SE,144,5.8,7.7,78,0.00,,,0.00,WUHU216HW,2013-02-10 05:33:00,
2013-02-09 23:38:00,39.6,33.3,29.69,SSE,152,4.2,6.2,78,0.00,,,0.00,WUHU216HW,2013-02-10 05:38:00,
2013-02-09 23:43:00,39.4,33.1,29.69,SE,136,5.4,7.5,78,0.00,,,0.00,WUHU216HW,2013-02-10 05:43:00,
2013-02-09 23:48:00,39.4,33.1,29.69,SE,126,4.4,4.9,78,0.00,,,0.00,WUHU216HW,2013-02-10 05:48:00,
2013-02-09 23:53:00,39.4,33.1,29.68,East,101,4.5,6.2,78,0.00,,,0.00,WUHU216HW,2013-02-10 05:53:00,
2013-02-09 23:58:00,39.4,33.1,29.67,ESE,113,5.0,5.6,78,0.00,,,0.00,WUHU216HW,2013-02-10 05:58:00,